Flag for Germany Weather past 2 weeks in Jena, Thuringia, Germany

Now
63 °F

Partly sunny.


Feels Like: 63 °F
Forecast: 49 / 65 °F
Wind: 7 mph from East

Location: Erfurt-Bindersleben

Current Time: Sep 3, 2015 at 1:40:38 PM

Latest Report: Sep 3, 2015 at 1:20 PM


Visibility: N/A

Pressure: 29.95 "Hg

Humidity: 68%

Dew point: 52 °F

Location of JenaLocation

Historic Weather in Jena — Graph

°F

Jena temperature yesterday

Maximum temperature yesterday: 68 °F (at 3:50 PM)
Minimum temperature yesterday: 50 °F (at 3:50 AM)
Average temperature yesterday: 59 °F

Past Weeks' High & Low Weather Summary

 TemperatureHumidityPressure
High91 °F (Aug 30, 3:50 PM)100% (Aug 21, 1:20 AM)30.30 "Hg (Aug 21, 1:20 AM)
Low48 °F (Aug 21, 6:20 AM)28% (Aug 31, 4:20 PM)29.71 "Hg (Aug 24, 1:50 PM)
Average65 °F68%30.03 "Hg
* Reported Aug 19 12:20 PM — Sep 3 12:20 PM, Jena, Weather by CustomWeather, © 2015

Note: Actual official high and low records may vary slightly from our data, if they occured in-between our weather recording intervals... More about our weather records

Advertising

Jena weather history for previous 24 hours

 ConditionsComfort  
Time TempWeatherWind HumidityBarometerVisibility
12:20 PM
Thu, Sep 3
61 °FScattered clouds.3 mph68%29.95 "HgN/A
11:50 AM61 °FPartly sunny.3 mph68%29.95 "HgN/A
11:20 AM59 °FScattered clouds.5 mph72%29.95 "HgN/A
10:50 AM59 °FPassing clouds.3 mph72%29.95 "HgN/A
10:20 AM59 °FPassing clouds.3 mph77%29.95 "HgN/A
9:50 AM55 °FSprinkles. Scattered clouds.2 mph82%29.98 "HgN/A
9:20 AM55 °FScattered showers. Broken clouds.5 mph82%29.95 "HgN/A
8:50 AM55 °FPartly sunny.6 mph82%29.98 "HgN/A
8:20 AM54 °FPartly sunny.7 mph82%29.98 "HgN/A
7:50 AM54 °FSunny.2 mph88%29.95 "Hg10 mi
7:20 AM54 °FPassing clouds.7 mph82%29.95 "HgN/A
6:50 AM54 °FSprinkles. Passing clouds.13 mph82%29.95 "HgN/A
6:20 AM52 °FPartly cloudy.5 mph88%29.95 "HgN/A
5:20 AM54 °FPartly cloudy.2 mph82%29.95 "HgN/A
4:50 AM54 °FPartly cloudy.8 mph82%29.95 "HgN/A
4:20 AM54 °FPassing clouds.7 mph82%29.95 "HgN/A
3:50 AM52 °FCool.6 mph82%29.95 "HgN/A
3:20 AM54 °FPartly cloudy.7 mph82%29.98 "HgN/A
2:50 AM54 °FClear.7 mph82%29.98 "Hg10 mi
2:20 AM55 °FClear.8 mph77%29.98 "Hg10 mi
1:50 AM52 °FClear.7 mph82%29.98 "Hg10 mi
1:20 AM54 °FClear.7 mph77%29.98 "Hg10 mi
12:50 AM55 °FClear.6 mph72%29.98 "Hg10 mi
11:20 PM
Wed, Sep 2
59 °FClear.6 mph63%30.01 "Hg10 mi
10:50 PM57 °FClear.5 mph67%30.01 "Hg10 mi
10:20 PM59 °FClear.6 mph63%30.01 "Hg10 mi
9:50 PM59 °FClear.5 mph63%30.01 "Hg10 mi
9:20 PM59 °FClear.5 mph63%30.01 "Hg10 mi
8:50 PM63 °FSunny.2 mph52%30.01 "Hg10 mi
8:20 PM63 °FSunny.1 mph56%30.01 "Hg10 mi
7:50 PM64 °FSunny.1 mph49%30.01 "Hg10 mi
7:20 PM64 °FSunny.2 mph52%30.01 "Hg10 mi
6:50 PM66 °FPassing clouds.5 mph46%30.01 "HgN/A
6:20 PM66 °FPassing clouds.6 mph46%30.01 "HgN/A
5:20 PM66 °FPassing clouds.6 mph43%30.01 "HgN/A
4:50 PM66 °FPassing clouds.7 mph46%30.01 "HgN/A
4:20 PM66 °FPassing clouds.8 mph43%30.01 "HgN/A
3:50 PM68 °FPassing clouds.6 mph43%30.01 "HgN/A
3:20 PM66 °FScattered clouds.9 mph46%30.01 "HgN/A
2:50 PM66 °FPassing clouds.10 mph46%30.01 "HgN/A
2:20 PM66 °FScattered clouds.8 mph46%30.04 "HgN/A
1:50 PM66 °FScattered clouds.7 mph46%30.04 "HgN/A
1:20 PM64 °FScattered clouds.8 mph52%30.04 "HgN/A
Weather by CustomWeather, © 2015

See weather overviewHow to use our weather pages